Radiation Dose at Monitoring Post of Fukushima Daini Nuclear Power Station
Date,Time,MP-1(microSv/h),MP-2(microSv/h),MP-3(microSv/h),MP-4(microSv/h),MP-5(microSv/h),MP-6(microSv/h),MP-7(microSv/h),Wind Direction,Wind Velocity(m/s),Rain
2020/09/10,00:00,0.181,0.164,0.272,0.256,0.251,0.145,0.088,-,CALM,No
2020/09/10,00:10,0.181,0.165,0.272,0.258,0.247,0.143,0.087,-,CALM,No
2020/09/10,00:20,0.183,0.165,0.275,0.258,0.251,0.145,0.087,-,CALM,No
2020/09/10,00:30,0.182,0.164,0.273,0.257,0.251,0.144,0.088,-,CALM,No
2020/09/10,00:40,0.181,0.165,0.272,0.260,0.246,0.144,0.087,-,CALM,No
2020/09/10,00:50,0.184,0.165,0.274,0.257,0.250,0.145,0.087,-,CALM,No
2020/09/10,01:00,0.182,0.165,0.272,0.257,0.251,0.144,0.087,-,CALM,No
2020/09/10,01:10,0.182,0.165,0.273,0.260,0.248,0.143,0.087,-,CALM,No
2020/09/10,01:20,0.182,0.163,0.275,0.257,0.251,0.144,0.086,-,CALM,No
2020/09/10,01:30,0.183,0.166,0.271,0.258,0.251,0.144,0.087,west-northwest,0.6,No
2020/09/10,01:40,0.182,0.165,0.274,0.259,0.248,0.145,0.086,-,CALM,No
2020/09/10,01:50,0.184,0.163,0.272,0.257,0.250,0.145,0.086,-,CALM,No
2020/09/10,02:00,0.183,0.165,0.271,0.257,0.250,0.143,0.087,-,CALM,No
2020/09/10,02:10,0.180,0.163,0.274,0.258,0.246,0.144,0.087,-,CALM,No
2020/09/10,02:20,0.183,0.163,0.273,0.256,0.249,0.145,0.087,northeast,0.6,No
2020/09/10,02:30,0.182,0.165,0.271,0.258,0.250,0.144,0.086,north-northeast,0.7,No
2020/09/10,02:40,0.180,0.164,0.273,0.258,0.249,0.144,0.087,-,CALM,No
2020/09/10,02:50,0.182,0.164,0.271,0.256,0.248,0.145,0.086,-,CALM,No
2020/09/10,03:00,0.181,0.164,0.271,0.258,0.251,0.144,0.087,-,CALM,No
2020/09/10,03:10,0.180,0.164,0.272,0.258,0.247,0.144,0.087,-,CALM,No
2020/09/10,03:20,0.184,0.164,0.270,0.256,0.250,0.144,0.085,south,0.6,No
2020/09/10,03:30,0.182,0.165,0.272,0.259,0.250,0.143,0.087,-,CALM,No
2020/09/10,03:40,0.181,0.164,0.274,0.257,0.248,0.145,0.086,-,CALM,No
2020/09/10,03:50,0.182,0.164,0.271,0.256,0.249,0.145,0.087,-,CALM,No
2020/09/10,04:00,0.181,0.164,0.273,0.258,0.251,0.143,0.087,-,CALM,No
2020/09/10,04:10,0.180,0.163,0.272,0.258,0.247,0.144,0.087,-,CALM,No
2020/09/10,04:20,0.182,0.164,0.270,0.259,0.250,0.144,0.087,south-southeast,0.8,No
2020/09/10,04:30,0.182,0.163,0.274,0.257,0.251,0.143,0.087,-,CALM,No
2020/09/10,04:40,0.181,0.164,0.271,0.256,0.248,0.145,0.087,south,0.9,No
2020/09/10,04:50,0.183,0.164,0.272,0.260,0.251,0.144,0.088,south,1.4,No
2020/09/10,05:00,0.182,0.164,0.274,0.257,0.251,0.144,0.087,south,1.6,No
2020/09/10,05:10,0.182,0.165,0.271,0.258,0.250,0.146,0.087,south,1.4,No
2020/09/10,05:20,0.183,0.164,0.275,0.259,0.252,0.145,0.087,south,1.4,No
2020/09/10,05:30,0.182,0.165,0.272,0.257,0.250,0.144,0.088,south,1.6,No
2020/09/10,05:40,0.183,0.165,0.272,0.259,0.249,0.145,0.088,south,1.5,No
2020/09/10,05:50,0.183,0.164,0.274,0.258,0.252,0.144,0.087,south,0.9,No
2020/09/10,06:00,0.180,0.165,0.271,0.257,0.250,0.145,0.087,southeast,1.1,No
2020/09/10,06:10,0.183,0.163,0.274,0.259,0.248,0.145,0.087,south,1.1,No
2020/09/10,06:20,0.183,0.164,0.273,0.257,0.252,0.145,0.088,south-southeast,1.6,No
2020/09/10,06:30,0.181,0.166,0.270,0.257,0.249,0.145,0.088,south,1.5,No
2020/09/10,06:40,0.182,0.164,0.274,0.258,0.247,0.145,0.088,south,1.7,No
2020/09/10,06:50,0.182,0.165,0.273,0.257,0.251,0.144,0.087,south,1.8,No
2020/09/10,07:00,0.181,0.165,0.271,0.256,0.250,0.145,0.087,south,1.5,No
2020/09/10,07:10,0.181,0.164,0.274,0.260,0.247,0.144,0.086,south,1.8,No
2020/09/10,07:20,0.183,0.164,0.274,0.259,0.247,0.144,0.086,south-southeast,2.2,No
2020/09/10,07:30,0.182,0.166,0.271,0.257,0.252,0.144,0.086,south-southeast,3.0,No
2020/09/10,07:40,0.182,0.165,0.269,0.256,0.251,0.145,0.086,south,3.5,No
2020/09/10,07:50,0.182,0.163,0.269,0.256,0.248,0.144,0.086,south-southeast,3.1,No
2020/09/10,08:00,0.184,0.164,0.268,0.259,0.248,0.143,0.086,south,3.7,No
2020/09/10,08:10,0.182,0.165,0.271,0.258,0.249,0.143,0.087,south-southeast,4.1,No
2020/09/10,08:20,0.181,0.165,0.270,0.257,0.252,0.143,0.086,south,4.7,No
2020/09/10,08:30,0.180,0.164,0.271,0.257,0.249,0.145,0.087,south-southeast,4.0,No
2020/09/10,08:40,0.182,0.164,0.272,0.257,0.248,0.144,0.087,south,4.9,No
2020/09/10,08:50,0.183,0.164,0.271,0.256,0.248,0.143,0.087,south-southeast,5.6,No
2020/09/10,09:00,0.183,0.163,0.273,0.258,0.249,0.144,0.087,south-southeast,4.6,No
2020/09/10,09:10,0.182,0.163,0.271,0.258,0.250,0.143,0.086,south-southeast,5.5,No
2020/09/10,09:20,0.181,0.163,0.272,0.258,0.248,0.144,0.086,south-southeast,7.0,No
2020/09/10,09:30,0.181,0.164,0.272,0.257,0.248,0.144,0.085,south-southeast,7.8,No
2020/09/10,09:40,0.180,0.164,0.272,0.256,0.249,0.144,0.085,south-southeast,8.4,No
2020/09/10,09:50,0.179,0.163,0.272,0.257,0.249,0.144,0.086,south-southeast,8.7,No
2020/09/10,10:00,0.181,0.162,0.272,0.256,0.248,0.143,0.086,south,8.5,No
2020/09/10,10:10,0.182,0.164,0.272,0.256,0.247,0.143,0.085,south,8.4,No
2020/09/10,10:20,0.181,0.164,0.273,0.256,0.248,0.143,0.086,south-southeast,8.7,No
2020/09/10,10:30,0.181,0.165,0.272,0.259,0.248,0.142,0.086,south-southeast,9.5,No
2020/09/10,10:40,0.180,0.163,0.274,0.257,0.249,0.143,0.085,south-southeast,9.5,No
2020/09/10,10:50,0.181,0.163,0.272,0.255,0.246,0.144,0.086,south,10.3,No
2020/09/10,11:00,0.180,0.164,0.271,0.255,0.248,0.143,0.086,south-southeast,9.3,No
2020/09/10,11:10,0.179,0.164,0.271,0.256,0.248,0.143,0.085,south-southeast,8.4,No
2020/09/10,11:20,0.181,0.164,0.272,0.258,0.248,0.143,0.085,south-southeast,8.4,No
2020/09/10,11:30,0.180,0.163,0.271,0.256,0.248,0.142,0.085,south-southeast,7.7,No
2020/09/10,11:40,0.180,0.164,0.271,0.255,0.249,0.143,0.085,south,8.1,No
2020/09/10,11:50,0.180,0.163,0.272,0.256,0.247,0.143,0.085,south-southeast,7.5,No
2020/09/10,12:00,0.181,0.164,0.271,0.257,0.248,0.143,0.086,south-southeast,8.1,No
2020/09/10,12:10,0.181,0.164,0.273,0.258,0.249,0.144,0.086,south-southeast,7.0,No
2020/09/10,12:20,0.181,0.164,0.275,0.257,0.248,0.143,0.085,south-southeast,8.4,No
2020/09/10,12:30,0.180,0.164,0.272,0.259,0.248,0.143,0.086,south-southeast,8.8,No
2020/09/10,12:40,0.181,0.163,0.272,0.258,0.248,0.144,0.086,south-southeast,9.5,No
2020/09/10,12:50,0.181,0.164,0.273,0.258,0.248,0.144,0.085,south-southeast,8.2,No
2020/09/10,13:00,0.181,0.163,0.271,0.257,0.249,0.143,0.084,south-southeast,8.8,No
2020/09/10,13:10,0.180,0.163,0.270,0.256,0.246,0.142,0.085,south-southeast,9.8,No
2020/09/10,13:20,0.180,0.163,0.271,0.256,0.248,0.143,0.085,south-southeast,9.8,No
2020/09/10,13:30,0.180,0.162,0.271,0.256,0.247,0.143,0.085,south-southeast,10.7,No
2020/09/10,13:40,0.181,0.164,0.271,0.256,0.247,0.143,0.085,south-southeast,11.2,No
2020/09/10,13:50,0.180,0.163,0.270,0.257,0.248,0.143,0.085,south,9.6,No
2020/09/10,14:00,0.180,0.163,0.270,0.256,0.246,0.142,0.085,south,10.0,No
2020/09/10,14:10,0.180,0.163,0.271,0.256,0.246,0.142,0.085,south,9.0,No
2020/09/10,14:20,0.179,0.162,0.271,0.255,0.248,0.143,0.085,south,8.6,No
2020/09/10,14:30,0.180,0.163,0.271,0.256,0.248,0.143,0.086,south,8.2,No
2020/09/10,14:40,0.180,0.162,0.271,0.257,0.249,0.144,0.085,south,7.2,No
2020/09/10,14:50,0.181,0.163,0.271,0.256,0.249,0.144,0.085,south,5.6,No
2020/09/10,15:00,0.181,0.163,0.272,0.257,0.248,0.143,0.085,south,6.1,No
2020/09/10,15:10,0.181,0.163,0.272,0.257,0.249,0.143,0.084,south,5.9,No
2020/09/10,15:20,0.181,0.163,0.272,0.257,0.248,0.143,0.085,south,7.0,No
2020/09/10,15:30,0.180,0.163,0.270,0.256,0.247,0.144,0.084,south,6.7,No
2020/09/10,15:40,0.180,0.163,0.269,0.256,0.246,0.143,0.084,south,6.4,No
2020/09/10,15:50,0.179,0.162,0.270,0.254,0.245,0.142,0.085,south,6.4,No
2020/09/10,16:00,0.179,0.162,0.271,0.257,0.247,0.143,0.085,south,6.3,Yes
2020/09/10,16:10,0.180,0.162,0.269,0.260,0.247,0.144,0.086,south,5.9,Yes
2020/09/10,16:20,0.183,0.162,0.272,0.261,0.248,0.145,0.085,south,6.0,No
2020/09/10,16:30,0.183,0.162,0.276,0.257,0.250,0.143,0.085,south,6.1,Yes
2020/09/10,16:40,0.182,0.165,0.274,0.257,0.250,0.144,0.085,south,6.0,Yes
2020/09/10,16:50,0.181,0.164,0.272,0.256,0.248,0.144,0.085,south,4.7,Yes
2020/09/10,17:00,0.181,0.165,0.272,0.258,0.247,0.145,0.086,south,5.0,No
2020/09/10,17:10,0.181,0.163,0.270,0.261,0.247,0.145,0.086,south,4.3,No
2020/09/10,17:20,0.184,0.164,0.275,0.259,0.252,0.145,0.086,south,3.4,Yes
2020/09/10,17:30,0.181,0.165,0.273,0.258,0.249,0.144,0.085,south,5.0,No
2020/09/10,17:40,0.181,0.163,0.272,0.256,0.248,0.142,0.084,south,5.8,No
2020/09/10,17:50,0.179,0.163,0.269,0.260,0.246,0.143,0.086,south,4.6,No
2020/09/10,18:00,0.182,0.162,0.274,0.259,0.250,0.144,0.086,south,4.9,No
2020/09/10,18:10,0.182,0.164,0.273,0.258,0.251,0.144,0.085,south,6.2,No
2020/09/10,18:20,0.181,0.164,0.270,0.256,0.249,0.143,0.086,south,6.4,No
2020/09/10,18:30,0.180,0.164,0.270,0.260,0.246,0.143,0.087,south,6.0,No
2020/09/10,18:40,0.181,0.163,0.274,0.261,0.249,0.143,0.086,south-southwest,5.4,No
2020/09/10,18:50,0.181,0.165,0.274,0.259,0.250,0.144,0.085,south-southwest,5.4,No
2020/09/10,19:00,0.181,0.164,0.270,0.256,0.248,0.142,0.085,south,4.0,No
2020/09/10,19:10,0.180,0.162,0.270,0.258,0.245,0.142,0.086,south-southwest,5.6,No
2020/09/10,19:20,0.182,0.163,0.274,0.259,0.249,0.142,0.086,south-southwest,5.2,No
2020/09/10,19:30,0.182,0.165,0.274,0.257,0.251,0.144,0.085,south,5.4,No
2020/09/10,19:40,0.181,0.163,0.271,0.256,0.249,0.143,0.085,south,5.4,No
2020/09/10,19:50,0.179,0.161,0.271,0.259,0.247,0.142,0.086,south,4.7,No
2020/09/10,20:00,0.182,0.164,0.274,0.258,0.249,0.143,0.086,south,3.2,No
2020/09/10,20:10,0.182,0.164,0.272,0.258,0.251,0.143,0.086,south,3.1,No
2020/09/10,20:20,0.181,0.163,0.271,0.256,0.248,0.143,0.085,south,4.0,No
2020/09/10,20:30,0.180,0.163,0.271,0.260,0.246,0.143,0.085,south,3.6,No
2020/09/10,20:40,0.183,0.164,0.274,0.258,0.249,0.142,0.086,south,3.2,No
2020/09/10,20:50,0.182,0.163,0.273,0.257,0.250,0.144,0.086,south,3.4,No
2020/09/10,21:00,0.180,0.162,0.269,0.257,0.248,0.143,0.085,south,4.1,No
2020/09/10,21:10,0.179,0.164,0.272,0.259,0.246,0.142,0.086,south,5.0,No
2020/09/10,21:20,0.183,0.163,0.273,0.258,0.250,0.143,0.086,south-southwest,4.5,No
2020/09/10,21:30,0.182,0.163,0.272,0.256,0.251,0.143,0.085,south-southwest,3.4,No
2020/09/10,21:40,0.180,0.164,0.271,0.259,0.247,0.143,0.085,south,4.1,No
2020/09/10,21:50,0.181,0.165,0.273,0.259,0.247,0.142,0.086,south-southwest,2.7,No
2020/09/10,22:00,0.183,0.164,0.274,0.258,0.251,0.144,0.086,south-southwest,2.3,No
2020/09/10,22:10,0.182,0.163,0.270,0.260,0.251,0.144,0.086,south-southwest,2.7,No
2020/09/10,22:20,0.179,0.166,0.273,0.260,0.249,0.143,0.086,south-southwest,2.4,No
2020/09/10,22:30,0.183,0.164,0.275,0.258,0.248,0.144,0.087,south-southwest,2.3,No
2020/09/10,22:40,0.183,0.163,0.272,0.257,0.250,0.144,0.086,south,2.8,No
2020/09/10,22:50,0.181,0.165,0.272,0.259,0.249,0.144,0.086,south,4.3,No
2020/09/10,23:00,0.181,0.164,0.276,0.259,0.248,0.143,0.087,south,6.0,No
2020/09/10,23:10,0.183,0.164,0.272,0.256,0.250,0.143,0.086,south,5.9,No
2020/09/10,23:20,0.182,0.166,0.271,0.259,0.250,0.144,0.086,south,4.3,No
2020/09/10,23:30,0.181,0.165,0.275,0.260,0.247,0.142,0.087,south,4.2,No
2020/09/10,23:40,0.184,0.163,0.272,0.257,0.248,0.144,0.086,south,6.1,No
2020/09/10,23:50,0.182,0.165,0.271,0.260,0.250,0.144,0.086,south,5.6,No
